Address 0xfd6042df3d74ce9959922fec559d7995f3933c55

 
Warning! There are reports that this address was used in a Phishing scam. Please exercise caution when interacting with this address.
Txn Hash
Block
From
To
Value [Txn Fee]
0xc25df776a4b1cba61e998f0752a9794faca5f8c37bdba7eb61df18313760f81554964322021-03-08 8:54:4135 days 10 hrs ago0x5b0ca464d124afd76f0a03a323813cbbafea8958 IN Fake_Phishing70 BNB0.0002492
0xf2db0e9c3cae9d3146d87d8ddb7f9b63835e04ad09d09b9c07471c1cd62bbb9649997552021-02-18 22:11:2452 days 20 hrs ago0xb0e6feff8911f23acbeb46cf088d03d74d2d3206 IN Fake_Phishing70.01 BNB0.00021
0x22737168288254f4612b95ea32d32cf041401899e7c4a0045d89ec106333e69c44770762021-01-31 16:46:2071 days 2 hrs ago0x40225b91d29e27134bd81ab188fe318314ef0568 IN Fake_Phishing70.000296 BNB0.004704
0x5a18c55992accce6b02ebcedbe11b57e449008a65f566b0fde8d82b196ed492243921632021-01-28 17:53:1074 days 1 hr agoFake_Phishing7OUT PancakeSwap: Router0 BNB0.00228724
0xc9bf71044b5afd7e28519fe478e2d327640ae4f52de9135593df0465964b98a743921332021-01-28 17:51:4074 days 1 hr agoFake_Phishing7OUT BUSD-T Stablecoin0 BNB0.00088812
0xee83462eabf17d939a7eeb5a011b24a6918a0713169be55044eb3380497a998243921172021-01-28 17:50:5274 days 1 hr agoFake_Phishing7OUT PancakeSwap: Router0 BNB0.002287
0x29c8492b179dd81c7bbbe85750dfa2aea8beaabcd82842fa9240b507bc7b31ef43921132021-01-28 17:50:4074 days 1 hr agoFake_Phishing7OUT PancakeSwap: Router0 BNB0.00228676
0x255553c74277cb82ed33197a2951f73ce8e64e72a282ca80219d2851a7c09abf43920592021-01-28 17:47:5874 days 1 hr agoFake_Phishing7OUT Binance: BTCB Token0 BNB0.00088812
0x1ae7f3456b2f2bf8fe541906a3dccb60d4516b45d129b0bbd8fec7a8bff9e6d943920422021-01-28 17:47:0474 days 1 hr agoFake_Phishing7OUT Ethereum: ETH Token0 BNB0.00088812
0x983161aa0987f15dc25c40b8ecbf3c701324911000782736246ac2b9a17a825743920312021-01-28 17:46:3174 days 1 hr agoFake_Phishing7OUT PancakeSwap: Router0 BNB0.00204564
0xf53982fee892d981af73bc14512a0fb69f68bfbca7361eefd1064c8c2e7507b943920122021-01-28 17:45:3474 days 1 hr agoFake_Phishing7OUT Binance: BUSD Stablecoin0 BNB0.00088812
0x414ec3ddc94d0b346a43e59b822623784e22c7c19b508804e90a7c79701acdca43919872021-01-28 17:44:1974 days 1 hr agoFake_Phishing7OUT Fake_Phishing80 BNB0.00042326
0x9c218c10efeddffeb37a1771722ed85cdc547091ed0506e3ac0efa7a1dc2df7443919722021-01-28 17:43:3474 days 1 hr agoFake_Phishing7OUT PancakeSwap: Router0 BNB0.00444146
0x24f8004e7feb5d5c1f3e2340cb8a60e36b8d18b2e9a96daf2bb4d02f83366ddd43919532021-01-28 17:42:3774 days 1 hr agoFake_Phishing7OUT PancakeSwap: Router0 BNB0.00445454
0x6c09b231bc9bafc1a70e75875014d80bfae0c33005d9e7c516d583a39ef62a8743919442021-01-28 17:42:1074 days 1 hr agoFake_Phishing7OUT PancakeSwap: Router0 BNB0.0039819
0x6659c11578c444d26aec93f7d6dcb4c7637a01774fceca2b6b3d1f26f0c3b7e143919182021-01-28 17:40:5274 days 1 hr agoFake_Phishing7OUT PancakeSwap: Router0 BNB0.00448246
0xa4593c08d512d3dff9e077a27aadf337c1edd335f8c6553f9954d7a5f9d6634f43919082021-01-28 17:40:2274 days 1 hr agoFake_Phishing7OUT PancakeSwap: Router0 BNB0.00414242
0xaa277c446a55f96e088b08fd42cffb191dcf785403ddcda97d292f31efc0539443917592021-01-28 17:32:5574 days 1 hr agoFake_Phishing7OUT PancakeSwap: POPCORN0 BNB0.00074978
0x4f7685b08ae0fb7e8681db480c757744dc3ac3ef76ff8287df1ddb0a894db46543917552021-01-28 17:32:4374 days 1 hr agoFake_Phishing7OUT PancakeSwap: ETH0 BNB0.00074978
0xe7f5168518f9f1c40ff845a121b670796d41e09ebf82a8fe823c1539bf22580343917522021-01-28 17:32:3474 days 1 hr agoFake_Phishing7OUT PancakeSwap: BTCB0 BNB0.00074978
0x4bdb3728b94c69deb612e7877b68c6e300a9329fc830fc1e45fafb20c0cecbb543917492021-01-28 17:32:2574 days 1 hr agoFake_Phishing7OUT PancakeSwap: USDT-BUSD0 BNB0.00075002
0xe214c0f71b5f270eff6006b05a469178425dc2e38de0123c16c16074b769cfb343917452021-01-28 17:32:1374 days 1 hr agoFake_Phishing7OUT PancakeSwap: BUSD0 BNB0.00075002
0x7b4608baca589abd5446f4e68910faa381f37ca034204ab214b16bacf4886dd343917422021-01-28 17:32:0474 days 1 hr agoFake_Phishing7OUT Fake_Phishing80 BNB0.00119772
0x38f75296e3343228c0309f8c99a24ca4f4812372f2b032f38ce25ac5a992b76843868782021-01-28 13:28:3474 days 5 hrs agoFake_Phishing7OUT 0x584527ded17aceb3dc617c40b04e8fe9afc570960 BNB0.0011501
0x285448960edf244fac746519c2a0de1dcf609e8aa3c1b09f707931c88498b1fc43868752021-01-28 13:28:2574 days 5 hrs agoFake_Phishing7OUT 0x584527ded17aceb3dc617c40b04e8fe9afc570960 BNB0.00114986
[ Download CSV Export 
Latest 9 internal transactions
Parent Txn Hash Block From To Value
0x5a18c55992accce6b02ebcedbe11b57e449008a65f566b0fde8d82b196ed492243921632021-01-28 17:53:1074 days 1 hr ago PancakeSwap: RouterFake_Phishing75,535.985464629830185788 BNB
0xee83462eabf17d939a7eeb5a011b24a6918a0713169be55044eb3380497a998243921172021-01-28 17:50:5274 days 1 hr ago PancakeSwap: RouterFake_Phishing72,578.891730909854116657 BNB
0x29c8492b179dd81c7bbbe85750dfa2aea8beaabcd82842fa9240b507bc7b31ef43921132021-01-28 17:50:4074 days 1 hr ago PancakeSwap: RouterFake_Phishing73,090.536833815297030438 BNB
0x983161aa0987f15dc25c40b8ecbf3c701324911000782736246ac2b9a17a825743920312021-01-28 17:46:3174 days 1 hr ago PancakeSwap: RouterFake_Phishing717,677.204378520444233045 BNB
0x9c218c10efeddffeb37a1771722ed85cdc547091ed0506e3ac0efa7a1dc2df7443919722021-01-28 17:43:3474 days 1 hr ago PancakeSwap: RouterFake_Phishing73,204.880921138889297157 BNB
0x24f8004e7feb5d5c1f3e2340cb8a60e36b8d18b2e9a96daf2bb4d02f83366ddd43919532021-01-28 17:42:3774 days 1 hr ago PancakeSwap: RouterFake_Phishing72,662.831426291227267196 BNB
0x6659c11578c444d26aec93f7d6dcb4c7637a01774fceca2b6b3d1f26f0c3b7e143919182021-01-28 17:40:5274 days 1 hr ago PancakeSwap: RouterFake_Phishing712,791.452445272117473677 BNB
0xa4593c08d512d3dff9e077a27aadf337c1edd335f8c6553f9954d7a5f9d6634f43919082021-01-28 17:40:2274 days 1 hr ago PancakeSwap: RouterFake_Phishing7968.96632362055979298 BNB
0x2b3ae1482eaec0ae4c96db504b1c3717676c60a91f8437691939253cff6f96e343767412021-01-28 5:01:1774 days 13 hrs ago BSC: Token HubFake_Phishing70.19 BNB
[ Download CSV Export 
Loading

Contract Name:
0 BNB

Compiler Version
0

Optimization Enabled:
0 BNB

Other Settings:
-NA-
Block Transaction Gas Used Reward
Age Block Fee Address BC Fee Address Voting Power Jailed Incoming
Block Uncle Number Difficulty Gas Used Reward
Loading
Loading
Make sure to use the "Vote Down" button for any spammy posts, and the "Vote Up" for interesting conversations.